| time (UTC) | temp F | wind direction | speed MPH | gust MPH | rain 1hr in | rain 24hr in | rain mn in | humidity % | barometer mb |
| 20260504031209 | 64 | 300 | 0.0 | 0.0 | 0.00 | 0.00 | 0.00 | 78 | 1019.0 |
| 20260504030706 | 64 | 300 | 0.0 | 0.0 | 0.00 | 0.00 | 0.00 | 78 | 1018.6 |
| 20260504030203 | 64 | 300 | 0.0 | 0.0 | 0.00 | 0.00 | 0.00 | 78 | 1019.0 |
| 20260504025700 | 64 | 300 | 0.0 | 0.0 | 0.00 | 0.00 | 0.00 | 77 | 1019.0 |
| 20260504025157 | 65 | 300 | 0.0 | 0.0 | 0.00 | 0.00 | 0.00 | 77 | 1019.0 |
| 20260504024654 | 65 | 300 | 0.0 | 0.0 | 0.00 | 0.00 | 0.00 | 77 | 1019.0 |
| 20260504024151 | 65 | 300 | 0.0 | 0.0 | 0.00 | 0.00 | 0.00 | 77 | 1019.0 |
| 20260504023648 | 65 | 300 | 0.0 | 0.0 | 0.00 | 0.00 | 0.00 | 76 | 1019.0 |
| 20260504023145 | 65 | 300 | 0.0 | 0.0 | 0.00 | 0.00 | 0.00 | 76 | 1019.0 |
| 20260504022641 | 66 | 300 | 0.0 | 0.0 | 0.00 | 0.00 | 0.00 | 76 | 1019.0 |
| 20260504022137 | 66 | 300 | 0.0 | 0.0 | 0.00 | 0.00 | 0.00 | 75 | 1019.0 |
| 20260504021634 | 66 | 300 | 0.0 | 0.0 | 0.00 | 0.00 | 0.00 | 75 | 1019.0 |
| 20260504021131 | 66 | 300 | 0.0 | 0.0 | 0.00 | 0.00 | 0.00 | 74 | 1019.0 |
| 20260504020629 | 66 | 300 | 0.0 | 0.0 | 0.00 | 0.00 | 0.00 | 73 | 1019.0 |
| 20260504020125 | 67 | 300 | 0.0 | 0.0 | 0.00 | 0.00 | 0.00 | 73 | 1019.0 |
| 20260504015623 | 67 | 300 | 0.0 | 0.0 | 0.00 | 0.00 | 0.00 | 73 | 1019.0 |
| 20260504015120 | 67 | 300 | 0.0 | 0.0 | 0.00 | 0.00 | 0.00 | 74 | 1019.0 |
| 20260504014616 | 67 | 300 | 0.0 | 0.0 | 0.00 | 0.00 | 0.00 | 73 | 1018.6 |
| 20260504014113 | 68 | 300 | 0.0 | 1.0 | 0.00 | 0.00 | 0.00 | 73 | 1019.0 |
| 20260504013610 | 68 | 300 | 0.0 | 1.0 | 0.00 | 0.00 | 0.00 | 72 | 1019.0 |
| 20260504013048 | 68 | 300 | 0.0 | 1.0 | 0.00 | 0.00 | 0.00 | 74 | 1019.0 |
| 20260504012545 | 68 | 300 | 1.0 | 1.0 | 0.00 | 0.00 | 0.00 | 72 | 1018.6 |
| 20260504012042 | 69 | 300 | 1.0 | 1.0 | 0.00 | 0.00 | 0.00 | 72 | 1018.6 |
| 20260504011539 | 69 | 300 | 0.0 | 0.0 | 0.00 | 0.00 | 0.00 | 72 | 1018.6 |
| 20260504011036 | 69 | 300 | 0.0 | 0.0 | 0.00 | 0.00 | 0.00 | 71 | 1018.6 |
| 20260504010458 | 69 | 300 | 0.0 | 1.0 | 0.00 | 0.00 | 0.00 | 71 | 1018.6 |
| 20260504005935 | 70 | 300 | 0.0 | 1.0 | 0.00 | 0.00 | 0.00 | 70 | 1018.6 |
| 20260504005432 | 70 | 300 | 0.0 | 1.0 | 0.00 | 0.00 | 0.00 | 70 | 1018.6 |
| 20260504004929 | 70 | 300 | 0.0 | 1.0 | 0.00 | 0.00 | 0.00 | 68 | 1018.6 |
| 20260504004426 | 70 | 296 | 0.0 | 0.0 | 0.00 | 0.00 | 0.00 | 68 | 1018.6 |
| 20260504003904 | 71 | 296 | 0.0 | 1.0 | 0.00 | 0.00 | 0.00 | 68 | 1018.6 |
| 20260504003401 | 71 | 296 | 0.0 | 1.0 | 0.00 | 0.00 | 0.00 | 67 | 1018.6 |
| 20260504002859 | 71 | 296 | 0.0 | 1.0 | 0.00 | 0.00 | 0.00 | 67 | 1018.6 |
| 20260504002354 | 72 | 327 | 1.0 | 1.0 | 0.00 | 0.00 | 0.00 | 66 | 1018.6 |
| 20260504001851 | 72 | 327 | 0.0 | 1.0 | 0.00 | 0.00 | 0.00 | 65 | 1018.6 |
| 20260504001317 | 73 | 327 | 1.0 | 1.0 | 0.00 | 0.00 | 0.00 | 62 | 1018.6 |
| 20260504000743 | 73 | 327 | 1.0 | 1.0 | 0.00 | 0.00 | 0.00 | 62 | 1018.6 |
| 20260504000138 | 73 | 327 | 1.0 | 1.0 | 0.00 | 0.00 | 0.00 | 62 | 1018.6 |
| 20260503235540 | 73 | 327 | 1.0 | 1.0 | 0.00 | 0.00 | 0.00 | 62 | 1018.6 |
| 20260503235018 | 73 | 326 | 0.0 | 2.0 | 0.00 | 0.00 | 0.00 | 61 | 1018.6 |
| 20260503234500 | 74 | 326 | 1.0 | 2.0 | 0.00 | 0.00 | 0.00 | 60 | 1019.0 |
| 20260503233957 | 74 | 326 | 0.0 | 2.0 | 0.00 | 0.00 | 0.00 | 61 | 1019.0 |
| 20260503233435 | 74 | 309 | 1.0 | 2.0 | 0.00 | 0.00 | 0.00 | 61 | 1019.0 |
| 20260503232932 | 74 | 20 | 1.0 | 2.0 | 0.00 | 0.00 | 0.00 | 59 | 1019.0 |
| 20260503232429 | 75 | 76 | 1.0 | 3.0 | 0.00 | 0.00 | 0.00 | 61 | 1019.0 |
| 20260503231926 | 75 | 76 | 1.0 | 3.0 | 0.00 | 0.00 | 0.00 | 60 | 1019.0 |
| 20260503231423 | 75 | 76 | 1.0 | 3.0 | 0.00 | 0.00 | 0.00 | 59 | 1019.0 |
| 20260503230920 | 75 | 77 | 1.0 | 3.0 | 0.00 | 0.00 | 0.00 | 60 | 1019.0 |
| 20260503230345 | 76 | 30 | 1.0 | 2.0 | 0.00 | 0.00 | 0.00 | 58 | 1019.0 |
| 20260503225823 | 76 | 55 | 1.0 | 2.0 | 0.00 | 0.00 | 0.00 | 61 | 1019.3 |
| 20260503225320 | 76 | 57 | 1.0 | 2.0 | 0.00 | 0.00 | 0.00 | 55 | 1019.0 |
| 20260503224817 | 76 | 36 | 1.0 | 3.0 | 0.00 | 0.00 | 0.00 | 61 | 1019.0 |
| 20260503224313 | 76 | 360 | 0.0 | 3.0 | 0.00 | 0.00 | 0.00 | 58 | 1019.3 |
| 20260503223811 | 77 | 9 | 1.0 | 3.0 | 0.00 | 0.00 | 0.00 | 58 | 1019.3 |
| 20260503223308 | 77 | 5 | 1.0 | 3.0 | 0.00 | 0.00 | 0.00 | 58 | 1019.3 |
| 20260503222805 | 77 | 333 | 0.0 | 2.0 | 0.00 | 0.00 | 0.00 | 58 | 1019.6 |
| 20260503222304 | 77 | 334 | 1.0 | 2.0 | 0.00 | 0.00 | 0.00 | 57 | 1019.3 |
| 20260503221759 | 77 | 327 | 1.0 | 2.0 | 0.00 | 0.00 | 0.00 | 57 | 1019.3 |
| 20260503221256 | 77 | 327 | 1.0 | 2.0 | 0.00 | 0.00 | 0.00 | 55 | 1019.3 |
| 20260503220753 | 78 | 345 | 1.0 | 2.0 | 0.00 | 0.00 | 0.00 | 56 | 1019.3 |
| 20260503220250 | 78 | 12 | 1.0 | 2.0 | 0.00 | 0.00 | 0.00 | 55 | 1019.3 |
| 20260503215747 | 78 | 26 | 1.0 | 2.0 | 0.00 | 0.00 | 0.00 | 53 | 1019.6 |
| 20260503215244 | 79 | 22 | 0.0 | 3.0 | 0.00 | 0.00 | 0.00 | 53 | 1019.6 |
| 20260503214710 | 79 | 320 | 1.0 | 3.0 | 0.00 | 0.00 | 0.00 | 56 | 1019.6 |
| 20260503214206 | 79 | 290 | 1.0 | 3.0 | 0.00 | 0.00 | 0.00 | 52 | 1019.6 |
| 20260503213703 | 79 | 286 | 1.0 | 3.0 | 0.00 | 0.00 | 0.00 | 53 | 1019.6 |
| 20260503213159 | 79 | 289 | 1.0 | 3.0 | 0.00 | 0.00 | 0.00 | 54 | 1020.0 |
| 20260503212624 | 79 | 309 | 1.0 | 4.0 | 0.00 | 0.00 | 0.00 | 53 | 1020.0 |
| 20260503212121 | 79 | 315 | 1.0 | 4.0 | 0.00 | 0.00 | 0.00 | 55 | 1020.0 |
| 20260503211559 | 79 | 315 | 1.0 | 5.0 | 0.00 | 0.00 | 0.00 | 54 | 1020.0 |
| 20260503211056 | 79 | 313 | 1.0 | 5.0 | 0.00 | 0.00 | 0.00 | 52 | 1020.0 |
| 20260503210553 | 79 | 351 | 2.0 | 5.0 | 0.00 | 0.00 | 0.00 | 52 | 1020.3 |
| 20260503210050 | 79 | 50 | 2.0 | 4.0 | 0.00 | 0.00 | 0.00 | 49 | 1020.3 |
| 20260503205516 | 80 | 315 | 1.0 | 7.0 | 0.00 | 0.00 | 0.00 | 52 | 1020.3 |
| 20260503205013 | 80 | 150 | 1.0 | 7.0 | 0.00 | 0.00 | 0.00 | 50 | 1020.3 |
| 20260503204510 | 80 | 52 | 2.0 | 7.0 | 0.00 | 0.00 | 0.00 | 53 | 1020.3 |
| 20260503204008 | 80 | 15 | 2.0 | 6.0 | 0.00 | 0.00 | 0.00 | 49 | 1020.3 |
| 20260503203505 | 80 | 46 | 2.0 | 6.0 | 0.00 | 0.00 | 0.00 | 52 | 1020.7 |
| 20260503203002 | 80 | 292 | 1.0 | 5.0 | 0.00 | 0.00 | 0.00 | 48 | 1020.7 |
| 20260503202427 | 80 | 303 | 2.0 | 6.0 | 0.00 | 0.00 | 0.00 | 53 | 1020.7 |
| 20260503201925 | 80 | 52 | 1.0 | 6.0 | 0.00 | 0.00 | 0.00 | 49 | 1021.0 |
| 20260503201422 | 80 | 54 | 3.0 | 6.0 | 0.00 | 0.00 | 0.00 | 45 | 1021.0 |
| 20260503200918 | 80 | 73 | 2.0 | 7.0 | 0.00 | 0.00 | 0.00 | 48 | 1021.0 |
| 20260503200415 | 80 | 0 | 1.0 | 7.0 | 0.00 | 0.00 | 0.00 | 49 | 1021.0 |
| 20260503195912 | 80 | 108 | 1.0 | 7.0 | 0.00 | 0.00 | 0.00 | 46 | 1021.3 |
| 20260503195409 | 80 | 62 | 2.0 | 5.0 | 0.00 | 0.00 | 0.00 | 49 | 1021.3 |
| 20260503194905 | 80 | 48 | 2.0 | 3.0 | 0.00 | 0.00 | 0.00 | 46 | 1021.3 |
| 20260503194402 | 80 | 22 | 1.0 | 5.0 | 0.00 | 0.00 | 0.00 | 46 | 1021.3 |
| 20260503193828 | 80 | 331 | 1.0 | 5.0 | 0.00 | 0.00 | 0.00 | 49 | 1021.3 |
| 20260503193223 | 80 | 70 | 1.0 | 5.0 | 0.00 | 0.00 | 0.00 | 48 | 1021.7 |
| 20260503192720 | 80 | 332 | 3.0 | 5.0 | 0.00 | 0.00 | 0.00 | 46 | 1021.7 |
| 20260503192217 | 81 | 65 | 1.0 | 3.0 | 0.00 | 0.00 | 0.00 | 50 | 1021.7 |
| 20260503191714 | 81 | 37 | 1.0 | 3.0 | 0.00 | 0.00 | 0.00 | 50 | 1021.7 |
| 20260503191211 | 81 | 311 | 2.0 | 3.0 | 0.00 | 0.00 | 0.00 | 47 | 1021.7 |
| 20260503190708 | 81 | 237 | 1.0 | 6.0 | 0.00 | 0.00 | 0.00 | 50 | 1022.0 |
| 20260503190205 | 81 | 3 | 2.0 | 8.0 | 0.00 | 0.00 | 0.00 | 53 | 1022.0 |
| 20260503185701 | 81 | 28 | 1.0 | 8.0 | 0.00 | 0.00 | 0.00 | 50 | 1022.0 |
| 20260503185158 | 80 | 40 | 2.0 | 8.0 | 0.00 | 0.00 | 0.00 | 45 | 1022.0 |
| 20260503184655 | 80 | 34 | 3.0 | 8.0 | 0.00 | 0.00 | 0.00 | 43 | 1022.0 |
| 20260503184151 | 81 | 52 | 2.0 | 8.0 | 0.00 | 0.00 | 0.00 | 45 | 1022.4 |
| 20260503183647 | 80 | 48 | 3.0 | 6.0 | 0.00 | 0.00 | 0.00 | 48 | 1022.4 |
| 20260503183144 | 80 | 187 | 2.0 | 7.0 | 0.00 | 0.00 | 0.00 | 48 | 1022.4 |
| 20260503182610 | 80 | 31 | 1.0 | 7.0 | 0.00 | 0.00 | 0.00 | 45 | 1022.4 |
| 20260503182048 | 80 | 55 | 2.0 | 7.0 | 0.00 | 0.00 | 0.00 | 42 | 1022.4 |
| 20260503181545 | 80 | 65 | 2.0 | 7.0 | 0.00 | 0.00 | 0.00 | 40 | 1022.7 |
| 20260503181041 | 80 | 27 | 2.0 | 7.0 | 0.00 | 0.00 | 0.00 | 44 | 1022.7 |
| 20260503180538 | 80 | 17 | 2.0 | 8.0 | 0.00 | 0.00 | 0.00 | 43 | 1022.7 |
| 20260503180013 | 80 | 290 | 1.0 | 8.0 | 0.00 | 0.00 | 0.00 | 44 | 1022.7 |
| 20260503175510 | 80 | 52 | 3.0 | 8.0 | 0.00 | 0.00 | 0.00 | 40 | 1022.7 |
| 20260503174905 | 80 | 47 | 3.0 | 8.0 | 0.00 | 0.00 | 0.00 | 43 | 1023.0 |
| 20260503174402 | 80 | 30 | 3.0 | 8.0 | 0.00 | 0.00 | 0.00 | 41 | 1023.0 |
| 20260503173828 | 80 | 56 | 2.0 | 11.0 | 0.00 | 0.00 | 0.00 | 45 | 1023.0 |
| 20260503173325 | 80 | 19 | 3.0 | 11.0 | 0.00 | 0.01 | 0.00 | 44 | 1023.4 |
| 20260503172822 | 80 | 357 | 2.0 | 11.0 | 0.00 | 0.01 | 0.00 | 46 | 1023.4 |
| 20260503172319 | 80 | 30 | 3.0 | 11.0 | 0.00 | 0.01 | 0.00 | 46 | 1023.4 |
| 20260503171745 | 79 | 32 | 1.0 | 6.0 | 0.00 | 0.01 | 0.00 | 50 | 1023.4 |
| 20260503171241 | 79 | 36 | 2.0 | 8.0 | 0.00 | 0.01 | 0.00 | 42 | 1023.4 |
| 20260503170706 | 79 | 3 | 2.0 | 8.0 | 0.00 | 0.01 | 0.00 | 46 | 1023.4 |
| 20260503170132 | 79 | 121 | 1.0 | 8.0 | 0.00 | 0.01 | 0.00 | 43 | 1023.4 |
| 20260503150749 | 74 | 33 | 2.0 | 7.0 | 0.00 | 0.01 | 0.00 | 65 | 1023.0 |
| 20260503150227 | 73 | 33 | 2.0 | 7.0 | 0.00 | 0.01 | 0.00 | 56 | 1023.0 |
| 20260503130854 | 62 | 294 | 0.0 | 0.0 | 0.00 | 0.01 | 0.00 | 95 | 1022.4 |
| 20260503130351 | 61 | 294 | 0.0 | 0.0 | 0.00 | 0.01 | 0.00 | 95 | 1022.4 |
| 20260503110339 | 56 | 294 | 0.0 | 0.0 | 0.00 | 0.01 | 0.00 | 92 | 1021.7 |
| 20260503090336 | 58 | 294 | 0.0 | 0.0 | 0.00 | 0.01 | 0.00 | 91 | 1021.3 |
| 20260503081202 | 59 | 294 | 0.0 | 0.0 | 0.00 | 0.01 | 0.00 | 89 | 1021.0 |
| 20260503080627 | 59 | 294 | 0.0 | 0.0 | 0.00 | 0.01 | 0.00 | 89 | 1021.0 |
| 20260503080124 | 59 | 294 | 0.0 | 0.0 | 0.00 | 0.01 | 0.00 | 89 | 1021.0 |
| 20260503072428 | 60 | 294 | 0.0 | 0.0 | 0.00 | 0.01 | 0.00 | 88 | 1021.0 |
| 20260503071924 | 60 | 294 | 0.0 | 0.0 | 0.00 | 0.01 | 0.00 | 87 | 1021.0 |
| 20260503071421 | 60 | 294 | 0.0 | 0.0 | 0.00 | 0.01 | 0.00 | 87 | 1021.0 |
| 20260503070900 | 60 | 294 | 0.0 | 0.0 | 0.00 | 0.01 | 0.00 | 86 | 1021.0 |
| 20260503070357 | 60 | 294 | 0.0 | 0.0 | 0.00 | 0.01 | 0.00 | 87 | 1021.0 |
| 20260503060112 | 61 | 294 | 0.0 | 0.0 | 0.00 | 0.01 | 0.00 | 84 | 1021.3 |
| 20260503055037 | 61 | 294 | 0.0 | 0.0 | 0.00 | 0.01 | 0.00 | 84 | 1021.0 |
| 20260503054503 | 61 | 294 | 0.0 | 0.0 | 0.00 | 0.01 | 0.00 | 84 | 1021.0 |
| 20260503054000 | 61 | 294 | 0.0 | 0.0 | 0.00 | 0.01 | 0.00 | 83 | 1021.0 |
| 20260503053458 | 61 | 294 | 0.0 | 0.0 | 0.00 | 0.01 | 0.00 | 84 | 1021.0 |
| 20260503052954 | 61 | 294 | 0.0 | 0.0 | 0.00 | 0.01 | 0.00 | 83 | 1021.0 |
| 20260503052451 | 61 | 294 | 0.0 | 0.0 | 0.00 | 0.01 | 0.00 | 83 | 1021.0 |
| 20260503051948 | 61 | 294 | 0.0 | 0.0 | 0.00 | 0.01 | 0.01 | 83 | 1021.0 |
| 20260503051444 | 61 | 294 | 0.0 | 0.0 | 0.00 | 0.01 | 0.01 | 82 | 1021.0 |
| 20260503050941 | 61 | 294 | 0.0 | 0.0 | 0.00 | 0.01 | 0.01 | 82 | 1021.0 |
| 20260503050438 | 61 | 294 | 0.0 | 0.0 | 0.00 | 0.01 | 0.01 | 82 | 1021.0 |
| 20260503045935 | 61 | 294 | 0.0 | 0.0 | 0.00 | 0.01 | 0.01 | 83 | 1020.7 |
| 20260503045432 | 61 | 294 | 0.0 | 0.0 | 0.00 | 0.01 | 0.01 | 83 | 1020.7 |
| 20260503044929 | 62 | 294 | 0.0 | 0.0 | 0.00 | 0.01 | 0.01 | 82 | 1020.7 |
| 20260503044426 | 62 | 294 | 0.0 | 0.0 | 0.00 | 0.01 | 0.01 | 82 | 1020.7 |
| 20260503043922 | 62 | 294 | 0.0 | 0.0 | 0.00 | 0.01 | 0.01 | 82 | 1020.7 |
| 20260503043420 | 62 | 294 | 0.0 | 0.0 | 0.00 | 0.01 | 0.01 | 82 | 1020.7 |
| 20260503042917 | 62 | 294 | 0.0 | 0.0 | 0.00 | 0.01 | 0.01 | 82 | 1020.7 |
| 20260503042414 | 62 | 294 | 0.0 | 0.0 | 0.00 | 0.01 | 0.01 | 82 | 1020.7 |
| 20260503041910 | 62 | 294 | 0.0 | 0.0 | 0.00 | 0.01 | 0.01 | 82 | 1021.0 |
| 20260503041407 | 62 | 294 | 0.0 | 0.0 | 0.00 | 0.01 | 0.01 | 82 | 1020.7 |
| 20260503040904 | 62 | 294 | 0.0 | 0.0 | 0.00 | 0.01 | 0.01 | 82 | 1020.7 |
| 20260503040401 | 62 | 294 | 0.0 | 0.0 | 0.00 | 0.01 | 0.01 | 82 | 1020.7 |
| 20260503035858 | 62 | 294 | 0.0 | 0.0 | 0.00 | 0.02 | 0.01 | 81 | 1020.7 |
| 20260503035355 | 62 | 294 | 0.0 | 0.0 | 0.00 | 0.02 | 0.01 | 81 | 1020.7 |
| 20260503034852 | 62 | 294 | 0.0 | 0.0 | 0.00 | 0.02 | 0.01 | 81 | 1020.7 |
| 20260503034349 | 63 | 294 | 0.0 | 0.0 | 0.00 | 0.02 | 0.01 | 81 | 1020.3 |
| 20260503033846 | 63 | 294 | 0.0 | 0.0 | 0.00 | 0.02 | 0.01 | 82 | 1020.3 |
| 20260503033311 | 63 | 294 | 0.0 | 0.0 | 0.00 | 0.03 | 0.01 | 81 | 1020.3 |
| 20260503032807 | 63 | 294 | 0.0 | 0.0 | 0.00 | 0.03 | 0.01 | 81 | 1020.3 |
| 20260503032305 | 63 | 294 | 0.0 | 0.0 | 0.00 | 0.04 | 0.01 | 81 | 1020.3 |
| 20260503031711 | 63 | 294 | 0.0 | 0.0 | 0.00 | 0.04 | 0.01 | 80 | 1020.3 |